[[{"header":{"parameterUnit":"m.s-1","parameterCategory":1,"la1":30.2991,"la2":30.254,"lo1":-89.0895,"lo2":-89.0444,"dy":0.0017,"dx":0.0017,"nx":28,"ny":28,"refTime":"2024-05-08T09:00:00:Z","depth":0,"parameterNumber":2,"parameterNumberName":"U-component_of_WINDS"},"data":[0,0,0,0,0,0,0,0,0,0,0,0,0,0,0,0,0,0,0,0,0,0,0,0,0,0,0,0,0,0,0,0,0,0,0,0,0,0,0,0,0,0,0,0,0,0,0,0,0,0,0,0,0,0,0,0,0,0,1.6176,1.6177,0,1.6251,1.6252,1.6253,1.6236,1.6234,1.6233,1.6231,1.6307,1.631,1.6314,0,0,0,0,0,0,0,0,0,0,0,0,0,1.6016,1.6019,1.6176,1.6177,1.6178,1.6251,1.6252,1.6253,1.6236,1.6234,1.6232,1.6231,1.6306,1.631,1.6314,0,0,0,0,0,0,0,0,0,0,0,0,0,1.6087,1.602,1.6176,1.6178,1.6179,1.6251,1.6252,1.6253,1.6236,1.6234,1.6232,1.623,1.6305,1.631,1.6315,1.6388,0,0,1.633,1.6332,0,0,0,0,0,0,0,0,1.6083,1.6093,1.6177,1.6178,1.6179,1.6232,1.6223,1.6299,1.6237,1.6215,1.6231,1.6229,1.6284,1.629,1.6309,1.6392,1.6395,1.633,1.6333,1.6335,1.6337,0,0,0,0,0,0,0,1.6078,1.609,1.6206,1.6178,1.618,1.6175,1.6183,1.6237,1.626,1.6216,1.6215,1.6224,1.6284,1.6304,1.6311,1.6396,1.633,1.6335,1.6338,1.634,1.6541,1.6544,0,0,0,0,0,0,1.6073,1.6086,1.6203,1.6208,1.6125,1.6179,1.6188,1.6217,1.626,1.6264,1.6226,1.6223,1.6297,1.6305,1.6313,1.6401,1.6335,1.634,1.6343,1.6539,1.6542,1.6544,0,0,0,0,0,0,1.6069,1.6083,1.62,1.6147,1.6161,1.6184,1.6217,1.622,1.624,1.6267,1.6271,1.6243,1.6295,1.6306,1.6369,1.6404,1.6342,1.6347,1.6536,1.654,1.6543,1.6578,0,0,0,0,0,0,1.6065,1.6082,1.6111,1.6148,1.6164,1.6256,1.6219,1.6223,1.6249,1.6246,1.6284,1.6288,1.6295,1.6362,1.6374,1.6409,1.6351,1.6533,1.6538,1.6542,1.6574,1.6583,1.659,0,0,0,0,0,1.6059,1.6118,1.6112,1.6127,1.6201,1.6258,1.6267,1.6274,1.6252,1.628,1.6297,1.6287,1.6398,1.6369,1.6382,1.6419,1.6531,1.6537,1.6542,1.6571,1.6581,1.659,0,0,0,0,0,0,1.6084,1.6123,1.6117,1.619,1.6221,1.6255,1.6291,1.6285,1.6323,1.6318,1.6325,1.6334,1.6398,1.6415,1.6382,1.6492,1.6461,1.647,1.6478,1.6489,1.6496,1.649,1.6355,0,0,0,0,0,1.6098,1.6142,1.6173,1.6234,1.625,1.6268,1.6293,1.6296,1.6328,1.6341,1.6363,1.6394,1.6436,1.6463,1.6503,1.6577,1.6584,1.6609,1.6617,1.6623,1.663,1.6669,1.668,1.6562,1.6562,1.6562,0,0,1.6127,1.6154,1.6181,1.6239,1.6264,1.6308,1.6279,1.6327,1.636,1.6348,1.6409,1.6426,1.6461,1.6529,1.6561,1.6546,1.6664,1.663,1.6635,1.6638,1.6675,1.6686,1.6696,1.6565,1.6565,1.6564,0,0,1.6203,1.6228,1.6281,1.6306,1.6343,1.6355,1.6368,1.6403,1.6414,1.6475,1.6467,1.6505,1.6578,1.6603,1.6625,1.671,1.6701,1.6723,1.6763,1.6801,1.681,1.6819,1.6848,1.6858,1.673,1.673,1.673,0,1.6234,1.6301,1.6309,1.6358,1.6383,1.6375,1.6428,1.6452,1.65,1.6517,1.65,1.659,1.6614,1.6687,1.6708,1.6726,1.674,1.6718,1.6809,1.6817,1.6825,1.6852,1.6863,1.6732,1.6732,1.6732,1.6731,0,1.6337,1.6384,1.6422,1.647,1.6499,1.655,1.6564,1.6594,1.6594,1.6607,1.6669,1.6696,1.6741,1.6759,1.676,1.6833,1.6822,1.6807,1.6776,1.6838,1.6864,1.6875,1.6735,1.6735,1.6734,1.6733,0,0,1.643,1.6481,1.6495,1.6516,1.6556,1.6592,1.6642,1.6687,1.6711,1.6745,1.6786,1.6847,1.6833,1.6859,1.6862,1.6895,1.6959,1.6876,1.6877,1.6889,1.704,1.705,1.7062,1.6954,1.6956,1.6957,1.7036,0,1.6509,1.6597,1.6605,1.6685,1.6727,1.672,1.6763,1.6792,1.6806,1.6843,1.6858,1.6901,1.688,1.6895,1.6928,1.6944,1.6989,1.6939,1.6991,1.6993,1.6981,1.7076,1.7087,1.716,1.7047,1.7048,1.705,0,1.6612,1.6649,1.6733,1.6767,1.6785,1.6824,1.6864,1.6901,1.6933,1.6941,1.6969,1.6968,1.7018,1.6986,1.7055,1.7021,1.7042,1.7054,1.7057,1.7061,1.7024,1.7082,1.7184,1.7194,1.7066,1.7065,1.7064,0,1.6669,1.674,1.6799,1.6818,1.6859,1.6887,1.6905,1.6935,1.6961,1.6997,1.7014,1.7055,1.7077,1.7108,1.7118,1.7094,1.7186,1.7155,1.7193,1.7193,1.7212,1.721,1.7318,1.7228,1.7228,1.7228,1.7227,0,1.6755,1.6807,1.6826,1.6862,1.6919,1.6927,1.6983,1.7,1.7027,1.7065,1.7062,1.7098,1.7108,1.7146,1.7154,1.7209,1.722,1.7226,1.7228,1.7226,1.7225,1.724,1.7234,1.723,1.723,1.7229,1.7229,0,1.6829,1.6844,1.6908,1.6942,1.6952,1.6992,1.7021,1.7055,1.7068,1.7117,1.7129,1.7149,1.7193,1.7206,1.7259,1.7264,1.7329,1.7326,1.7318,1.7318,1.7354,1.735,1.7474,1.749,1.7391,1.7392,1.7393,0,1.6882,1.6921,1.696,1.6986,1.7005,1.7047,1.7074,1.7083,1.7111,1.7151,1.718,1.7224,1.7259,1.733,1.7349,1.739,1.7387,1.7428,1.7393,1.739,1.7386,1.7383,1.7387,1.7434,1.7435,1.7436,1.7436,0,1.6974,1.698,1.7019,1.706,1.7092,1.7125,1.7157,1.7178,1.7192,1.7223,1.7268,1.7296,1.735,1.7393,1.7434,1.7452,1.7446,1.7447,1.7458,1.7456,1.7449,1.7452,1.7335,1.7444,1.7443,1.7443,1.7442,1.7442,1.7039,1.7073,1.7105,1.7148,1.7173,1.7203,1.7237,1.7254,1.7292,1.7337,1.7341,1.739,1.742,1.7475,1.7495,1.7533,1.7521,1.7536,1.754,1.7544,1.7546,1.7444,1.754,1.754,1.754,1.754,1.754,0,1.713,1.715,1.719,1.7234,1.7268,1.7261,1.7295,1.7323,1.7367,1.7396,1.7431,1.7483,1.7525,1.7547,1.7589,1.7614,1.7613,1.7625,1.7622,1.7626,1.7555,1.7541,1.7626,1.7626,1.7626,1.7625,1.7625,1.7625,1.7181,1.7238,1.7247,1.7316,1.7336,1.7385,1.7405,1.7432,1.7455,1.7514,1.7548,1.7563,1.7589,1.7633,1.767,1.7676,1.769,1.7704,1.7708,1.764,1.7632,1.7623,1.761,1.7707,1.7707,1.7776,1.7776,1.7777]},{"header":{"parameterUnit":"m.s-1","parameterCategory":1,"la1":30.2991,"la2":30.254,"lo1":-89.0895,"lo2":-89.0444,"dy":0.0017,"dx":0.0017,"nx":28,"ny":28,"refTime":"2024-05-08T09:00:00:Z","depth":0,"parameterNumber":3,"parameterNumberName":"V-component_of_WINDS"},"data":[0,0,0,0,0,0,0,0,0,0,0,0,0,0,0,0,0,0,0,0,0,0,0,0,0,0,0,0,0,0,0,0,0,0,0,0,0,0,0,0,0,0,0,0,0,0,0,0,0,0,0,0,0,0,0,0,0,0,5.4878,5.4878,0,5.4939,5.4939,5.494,5.4896,5.4894,5.4892,5.489,5.4946,5.4949,5.4953,0,0,0,0,0,0,0,0,0,0,0,0,0,5.4717,5.472,5.4878,5.4879,5.4879,5.4938,5.4939,5.494,5.4896,5.4894,5.4891,5.4889,5.4945,5.4949,5.4953,0,0,0,0,0,0,0,0,0,0,0,0,0,5.4783,5.4721,5.4878,5.4865,5.4864,5.4938,5.4939,5.494,5.4897,5.4894,5.4891,5.4888,5.4944,5.4949,5.4953,5.5042,0,0,5.4969,5.4971,0,0,0,0,0,0,0,0,5.4779,5.4789,5.4866,5.4866,5.4865,5.4907,5.4903,5.4974,5.4897,5.4884,5.489,5.4887,5.4935,5.494,5.4958,5.5045,5.5047,5.4969,5.4972,5.4974,5.4976,0,0,0,0,0,0,0,5.4775,5.4786,5.4902,5.4867,5.4867,5.4853,5.486,5.4916,5.4925,5.4885,5.4882,5.489,5.4934,5.4953,5.4959,5.5048,5.4969,5.4973,5.4976,5.4978,5.5209,5.5212,0,0,0,0,0,0,5.4772,5.4782,5.49,5.4903,5.4814,5.4859,5.4866,5.4896,5.4924,5.4926,5.4892,5.4888,5.4946,5.4953,5.4961,5.5066,5.4974,5.4979,5.4982,5.5205,5.5209,5.5213,0,0,0,0,0,0,5.4769,5.4783,5.4897,5.4842,5.4856,5.4865,5.4899,5.4899,5.4918,5.493,5.493,5.4911,5.4944,5.4954,5.5022,5.5067,5.4981,5.4985,5.5202,5.5207,5.5211,5.5276,0,0,0,0,0,0,5.4765,5.4782,5.4818,5.4843,5.4859,5.496,5.4902,5.4902,5.4927,5.4922,5.4947,5.4949,5.4943,5.5015,5.5027,5.5072,5.4989,5.5198,5.5204,5.5209,5.527,5.5283,5.5293,0,0,0,0,0,5.4759,5.4832,5.482,5.4834,5.4904,5.4963,5.4971,5.4965,5.4931,5.4966,5.4973,5.4948,5.506,5.5023,5.5036,5.5083,5.5195,5.5202,5.5209,5.5265,5.528,5.5293,0,0,0,0,0,0,5.4809,5.4836,5.4822,5.4906,5.4933,5.4955,5.4998,5.4981,5.5016,5.5009,5.4997,5.5003,5.5075,5.5086,5.5043,5.5169,5.5122,5.5132,5.516,5.5175,5.5186,5.5182,5.4993,0,0,0,0,0,5.4831,5.4879,5.4898,5.497,5.4985,5.499,5.5015,5.5008,5.5034,5.5044,5.5056,5.5081,5.5122,5.5149,5.5187,5.5272,5.5276,5.531,5.5322,5.5331,5.534,5.5384,5.54,5.5236,5.5236,5.5236,0,0,5.4875,5.4895,5.4925,5.4981,5.5001,5.5049,5.4999,5.5052,5.5086,5.5051,5.5117,5.5127,5.5154,5.5231,5.5265,5.5241,5.5386,5.534,5.5348,5.5351,5.5393,5.5409,5.5422,5.5241,5.524,5.5239,0,0,5.4979,5.5,5.5062,5.5083,5.5115,5.5117,5.5132,5.5157,5.5163,5.523,5.5204,5.5244,5.5315,5.5334,5.5354,5.5465,5.5443,5.5478,5.5538,5.5581,5.5594,5.5606,5.5645,5.5659,5.5486,5.5487,5.5487,0,5.5029,5.5102,5.5096,5.5151,5.5175,5.5148,5.521,5.523,5.5271,5.5288,5.5261,5.5349,5.5365,5.5446,5.5473,5.549,5.5505,5.5475,5.5593,5.5605,5.5615,5.5652,5.5667,5.5491,5.549,5.549,5.5489,0,5.5161,5.5212,5.5259,5.5302,5.5331,5.5389,5.539,5.542,5.541,5.5415,5.5482,5.55,5.5541,5.5559,5.555,5.5639,5.5623,5.5595,5.5547,5.5635,5.5669,5.5683,5.5496,5.5495,5.5494,5.5493,0,0,5.5299,5.5338,5.5355,5.5374,5.5406,5.5444,5.55,5.5542,5.5568,5.5597,5.5642,5.5703,5.5678,5.5699,5.5691,5.573,5.5816,5.5697,5.5697,5.5718,5.5913,5.5934,5.595,5.5801,5.5804,5.5806,5.5911,0,5.5405,5.5505,5.5501,5.5593,5.5639,5.5614,5.5662,5.5686,5.5691,5.5729,5.5734,5.5778,5.5741,5.5754,5.5791,5.5797,5.5854,5.579,5.5841,5.5843,5.5835,5.5968,5.599,5.6088,5.5924,5.5926,5.5928,0,5.5541,5.5577,5.5675,5.57,5.5719,5.5763,5.5801,5.5839,5.5864,5.5865,5.589,5.5876,5.593,5.5881,5.5955,5.5911,5.5931,5.5938,5.5941,5.5945,5.5891,5.5975,5.6119,5.6134,5.5949,5.5948,5.5946,0,5.5631,5.5704,5.5772,5.5788,5.582,5.5851,5.5865,5.5888,5.5913,5.5945,5.5961,5.5999,5.6019,5.6047,5.6042,5.6008,5.6117,5.6068,5.6118,5.6118,5.6142,5.614,5.6291,5.6156,5.6156,5.6156,5.6156,0,5.5749,5.581,5.5813,5.5854,5.5921,5.5914,5.5979,5.5989,5.601,5.6051,5.603,5.6069,5.6061,5.6099,5.6095,5.6156,5.6165,5.6167,5.6165,5.6168,5.6168,5.6181,5.6174,5.616,5.6159,5.6158,5.6157,0,5.5861,5.5865,5.5937,5.5961,5.5969,5.6016,5.6036,5.6074,5.6078,5.613,5.6142,5.6148,5.6191,5.619,5.6239,5.6236,5.6311,5.6301,5.6303,5.6301,5.635,5.6346,5.6514,5.6535,5.6388,5.6389,5.639,0,5.5936,5.5982,5.6012,5.6039,5.6056,5.61,5.6126,5.612,5.6148,5.6181,5.6214,5.6257,5.629,5.6361,5.6368,5.6405,5.6395,5.6452,5.6401,5.6402,5.6395,5.6392,5.6396,5.6462,5.6463,5.6465,5.6466,0,5.6068,5.6068,5.6108,5.6149,5.6181,5.6212,5.624,5.6263,5.6261,5.6292,5.6338,5.6364,5.6415,5.6456,5.6492,5.6503,5.6484,5.6482,5.6495,5.6499,5.6498,5.6498,5.633,5.6478,5.6477,5.6476,5.6475,5.6475,5.6163,5.6203,5.623,5.6275,5.6296,5.6323,5.636,5.6369,5.6408,5.645,5.6444,5.6494,5.6517,5.6563,5.6578,5.6616,5.6596,5.6615,5.662,5.6625,5.663,5.6493,5.6622,5.6622,5.6622,5.6621,5.6621,0,5.6294,5.631,5.6351,5.6393,5.6427,5.6408,5.6438,5.6468,5.6513,5.6537,5.6571,5.6623,5.6663,5.6673,5.6711,5.6739,5.6731,5.6749,5.6747,5.675,5.6646,5.6631,5.6755,5.6755,5.6755,5.6755,5.6755,5.6755,5.6366,5.6432,5.6435,5.651,5.6525,5.6577,5.6595,5.6619,5.6638,5.6698,5.6732,5.6739,5.6757,5.6796,5.6831,5.6833,5.6847,5.6869,5.6867,5.677,5.6757,5.6744,5.6729,5.6872,5.6873,5.6967,5.6968,5.6968]}]]